Location: Carbonear
(47.7333°N, 53.2500°W)
Time: 16:09:04
(UTC+00:00)

CUTE-I - Pass Details

Date: 08 December 2022
Orbit: 809 x 824 km, 98.7° (Epoch: 05 February)

Event Time Altitude Azimuth Distance (km) Brightness Sun altitude
Rises 20:53:39 0° 166° (SSE) 3,325 ? -11.6°
Reaches altitude 10° 20:55:58 10° 167° (SSE) 2,400 ? -12.0°
Maximum altitude 21:01:18 82° 254° (WSW) 831 ? -12.8°
Drops below altitude 10° 21:06:41 10° 344° (NNW) 2,427 ? -13.7°
Sets 21:09:03 0° 345° (NNW) 3,366 ? -14.1°
